sat.trackr.live / text

‹ back to catalog

STARLINK-2485

NORAD 48142 · 2021-027BC

PAYLOAD ACTIVE UNKNOWN

§ Identity

Operator
Country
US
Launch date
2021-04-07
Launch site
AFETR
Launch vehicle
Mass (kg)
RCS (m²)

Purposes: comms

External: N2YO · Heavens-Above · Gunter

§ Orbital elements

Epoch: 2026-05-25T00:32:32.280576Z

Period
93.99 min
Inclination
53.1590°
Eccentricity
0.0003435
Mean motion
15.32023758 rev/d
Perigee alt
467.4 km
Apogee alt
472.1 km
Semi-major
6,847.9 km
B*
-2.5103e-3
RAAN
158.0165°
Arg perigee
57.1383°
Mean anomaly
302.9948°
Rev number
28,437

§ Raw data

STARLINK-24851 48142U 21027BC  26145.02259584 -.00078259  00000+0 -25103-2 0  99992 48142  53.1590 158.0165 0003435  57.1383 302.9948 15.32023758284377

JSON: /api/v1/satellites/48142 · /tle

For live sub-satellite position, see the globe view (requires WebGL).

§ Visibility from observer

Set your observer location to see the next 7 days of passes ≥ 10°. The values pass through the URL so the page stays shareable.

No JS? Fill the form by hand. The geolocation button needs JavaScript.